Weather History for Mosinee, WI

Change the Weather History Date:

Thursday, June 19, 2014

  Actual Average Record
Temperature  
Mean Temperature 64 °F -  
Max Temperature 69 °F 73 °F 89 °F (2012)
Min Temperature 59 °F 53 °F 41 °F (2004)
Degree Days  
Heating Degree Days 1    
Growing Degree Days 14 (Base 50)    
Moisture  
Dew Point 61 °F    
Average Humidity 95    
Maximum Humidity 100    
Minimum Humidity 78    
Precipitation  
Precipitation 0.00 in - - ()
Sea Level Pressure  
Sea Level Pressure 30.10 in    
Wind  
Wind Speed 10 mph (East)    
Max Wind Speed 15 mph    
Max Gust Speed 23 mph    
Visibility 7 miles    
Events Fog , Rain    
Averages and records for this station are not official NWS values.
T = Trace of Precipitation, MM = Missing Value Source: NWS Daily Summary

Daily Weather History Graph

Daily Weather History Graph

Search for Another Location

Airport:

Trip Planner

Search our weather history database for the weather conditions in past years. The results will help you decide how hot, cold, wet, or windy it might be!

Date:

Astronomy

Jun. 19, 2014 Rise Set
Actual Time 5:12 AM CDT 8:47 PM CDT
Civil Twilight 4:35 AM CDT 9:24 PM CDT
Nautical Twilight 3:45 AM CDT 10:14 PM CDT
Astronomical Twilight 2:41 AM CDT 11:19 PM CDT
Moon 12:35 AM CDT (6/19) 1:00 PM CDT (6/19)
Length of Visible Light 16h 49m
Length of Day
15h 35m
Waning Gibbous, 51% of the Moon is Illuminated
Jun 19
Waning Gibbous
Jun 19
Last Quarter
Jun 27
New
Jul 5
First Quarter
Jul 12
Full

Hourly Weather History & Observations

Time (CDT) Temp. Dew Point Humidity Pressure Visibility Wind Dir Wind Speed Gust Speed Precip Events Conditions
12:15 AM 60.8 °F 60.8 °F 100% 30.07 in 10.0 mi ENE 11.5 mph - N/A   Clear
12:35 AM 60.8 °F 60.8 °F 100% 30.07 in 10.0 mi East 8.1 mph - N/A   Clear
12:55 AM 60.8 °F 60.8 °F 100% 30.08 in 7.0 mi East 6.9 mph - N/A   Clear
1:15 AM 60.8 °F 60.8 °F 100% 30.10 in 7.0 mi East 5.8 mph - N/A   Mostly Cloudy
1:35 AM 60.8 °F 60.8 °F 100% 30.10 in 7.0 mi East 8.1 mph - N/A   Overcast
1:55 AM 60.8 °F 60.8 °F 100% 30.10 in 7.0 mi East 8.1 mph - N/A   Overcast
2:15 AM 60.8 °F 60.8 °F 100% 30.09 in 10.0 mi East 15.0 mph - N/A   Mostly Cloudy
2:35 AM 60.8 °F 60.8 °F 100% 30.08 in 7.0 mi East 15.0 mph 20.7 mph N/A   Overcast
2:55 AM 60.8 °F 60.8 °F 100% 30.07 in 7.0 mi East 13.8 mph 20.7 mph N/A   Overcast
3:15 AM 60.8 °F 60.8 °F 100% 30.09 in 7.0 mi East 9.2 mph - N/A   Overcast
3:35 AM 60.8 °F 60.8 °F 100% 30.11 in 10.0 mi ESE 9.2 mph - N/A   Overcast
3:55 AM 60.8 °F 60.8 °F 100% 30.11 in 10.0 mi ESE 9.2 mph - N/A   Overcast
4:15 AM 60.8 °F 59.0 °F 94% 30.10 in 7.0 mi ESE 5.8 mph - N/A   Overcast
5:15 AM 59.0 °F 59.0 °F 100% 30.08 in 7.0 mi East 9.2 mph - N/A   Overcast
5:35 AM 59.0 °F 59.0 °F 100% 30.09 in 1.8 mi East 10.4 mph - N/A   Overcast
5:45 AM 60.8 °F 60.8 °F 100% 30.09 in 0.5 mi East 10.4 mph - N/A   Overcast
5:50 AM 60.8 °F 60.8 °F 100% 30.09 in 0.5 mi East 10.4 mph - N/A Fog Fog
6:47 AM 60.8 °F 60.8 °F 100% 30.11 in 0.5 mi East 9.2 mph - N/A Fog Fog
7:00 AM 60.8 °F 60.8 °F 100% 30.12 in 0.8 mi East 10.4 mph - N/A   Overcast
7:20 AM 60.8 °F 60.8 °F 100% 30.13 in - East 8.1 mph - N/A Fog Fog
7:45 AM 60.8 °F 60.8 °F 100% 30.13 in - East 9.2 mph - N/A Fog Fog
8:05 AM 60.8 °F 60.8 °F 100% 30.13 in 0.8 mi East 9.2 mph 16.1 mph N/A   Overcast
8:52 AM 62.6 °F 62.6 °F 100% 30.13 in 2.0 mi East 10.4 mph - N/A   Overcast
9:45 AM 62.6 °F 62.6 °F 100% 30.14 in 5.0 mi East 8.1 mph - N/A   Overcast
10:50 AM 64.4 °F 62.6 °F 94% 30.16 in 7.0 mi East 4.6 mph - N/A   Overcast
11:55 AM 66.2 °F 62.6 °F 88% 30.16 in 7.0 mi East 6.9 mph - N/A   Overcast
1:45 PM 69.8 °F 62.6 °F 78% 30.14 in 7.0 mi ESE 13.8 mph 18.4 mph N/A   Overcast
2:45 PM 69.8 °F 62.6 °F 78% 30.10 in 7.0 mi ESE 11.5 mph 19.6 mph N/A   Overcast
4:45 PM 69.8 °F 62.6 °F 78% 30.07 in 10.0 mi ESE 13.8 mph 20.7 mph N/A   Mostly Cloudy
5:45 PM 69.8 °F 62.6 °F 78% 30.07 in 10.0 mi East 11.5 mph 16.1 mph N/A   Scattered Clouds
6:45 PM 69.8 °F 62.6 °F 78% 30.06 in 10.0 mi ESE 10.4 mph 18.4 mph N/A   Mostly Cloudy
7:45 PM 66.2 °F 62.6 °F 88% 30.05 in 10.0 mi East 13.8 mph 23.0 mph N/A   Overcast
8:45 PM 64.4 °F 60.8 °F 88% 30.06 in 7.0 mi East 9.2 mph 16.1 mph N/A   Overcast
10:15 PM 60.8 °F 59.0 °F 94% 30.09 in 10.0 mi East 11.5 mph - N/A   Drizzle
10:35 PM 60.8 °F 59.0 °F 94% 30.09 in 10.0 mi East 6.9 mph - N/A Rain Light Rain
11:15 PM 59.0 °F 59.0 °F 100% 30.07 in 10.0 mi East 10.4 mph - N/A   Overcast
11:55 PM 59.0 °F 59.0 °F 100% 30.06 in 10.0 mi East 8.1 mph - N/A   Overcast